KB2SKP Weather Reports


Display with metric or nautical units.
time (UTC)temp
F
wind
direction
speed
MPH
gust
MPH
rain 1hr
in
rain 24hr
in
rain mn
in
humidity
%
barometer
mb
20260831075849 74 223 0.0 2.0 0.00 0.00 0.00 97 1014.5
20260831075344 74 135 0.0 1.0 0.00 0.00 0.00 97 1014.4
20260831074839 74 228 0.0 2.0 0.00 0.00 0.00 96 1014.5
20260831074338 74 308 0.0 1.0 0.00 0.00 0.00 96 1014.4
20260831073834 74 228 0.0 1.0 0.00 0.00 0.00 96 1014.5
20260831073333 74 205 0.0 1.0 0.00 0.00 0.00 96 1014.4
20260831072828 75 224 0.0 1.0 0.00 0.00 0.00 96 1014.5
20260831072324 75 339 0.0 1.0 0.00 0.00 0.00 96 1014.5
20260831071820 75 296 0.0 2.0 0.00 0.00 0.00 96 1014.6
20260831071319 75 324 0.0 1.0 0.00 0.00 0.00 96 1014.7
20260831070814 75 191 0.0 2.0 0.00 0.00 0.00 96 1014.6
20260831070313 75 302 1.0 2.0 0.00 0.00 0.00 95 1014.6
20260831065812 75 276 0.0 1.0 0.00 0.00 0.00 95 1014.6
20260831065310 75 246 0.0 1.0 0.00 0.00 0.00 95 1014.6
20260831064806 76 293 0.0 3.0 0.00 0.00 0.00 95 1014.5
20260831064301 75 296 2.0 3.0 0.00 0.00 0.00 95 1014.7
20260831063757 76 300 0.0 2.0 0.00 0.00 0.00 95 1014.7
20260831063251 76 268 2.0 2.0 0.00 0.00 0.00 95 1014.4
20260831062746 76 257 0.0 2.0 0.00 0.00 0.00 95 1014.3
20260831062241 76 300 3.0 3.0 0.00 0.00 0.00 96 1014.6
20260831061739 75 281 1.0 2.0 0.00 0.00 0.00 96 1014.5
20260831061234 75 247 1.0 2.0 0.00 0.00 0.00 96 1014.3
20260831060730 75 242 0.0 2.0 0.00 0.00 0.00 97 1014.5
20260831060225 75 246 1.0 2.0 0.00 0.00 0.00 96 1014.6
20260831055725 75 319 0.0 3.0 0.00 0.00 0.00 96 1014.5
20260831055224 75 191 0.0 2.0 0.00 0.00 0.00 96 1014.7
20260831054719 75 198 0.0 1.0 0.00 0.00 0.00 96 1014.5
20260831054214 75 257 1.0 2.0 0.00 0.00 0.00 96 1014.6
20260831053708 75 266 2.0 3.0 0.00 0.00 0.00 96 1014.8
20260831053207 75 235 0.0 3.0 0.00 0.00 0.00 97 1014.8
20260831052706 75 237 1.0 2.0 0.00 0.00 0.00 96 1014.8
20260831052206 75 330 0.0 2.0 0.00 0.00 0.00 96 1014.9
20260831051704 75 218 0.0 1.0 0.00 0.00 0.00 96 1014.8
20260831051203 75 279 1.0 2.0 0.00 0.00 0.00 96 1014.9
20260831050702 75 327 0.0 2.0 0.00 0.00 0.00 96 1015.0
20260831050201 75 271 1.0 2.0 0.00 0.00 0.00 96 1014.9
20260831045656 75 220 0.0 1.0 0.00 0.00 0.00 95 1015.0
20260831045151 75 27 0.0 2.0 0.00 0.00 0.00 95 1015.0
20260831044646 75 334 0.0 1.0 0.00 0.00 0.00 95 1015.1
20260831044141 75 212 1.0 2.0 0.00 0.00 0.00 95 1014.8
20260831043637 75 257 0.0 3.0 0.00 0.00 0.00 95 1014.8
20260831043132 75 276 1.0 3.0 0.00 0.00 0.00 95 1014.8
20260831042631 75 236 0.0 2.0 0.00 0.00 0.00 95 1014.9
20260831042126 75 256 0.0 2.0 0.00 0.00 0.00 95 1015.0
20260831041622 75 269 0.0 2.0 0.00 0.00 0.00 94 1014.9
20260831041121 75 236 2.0 2.0 0.00 0.00 0.00 94 1014.9
20260831040616 75 236 1.0 2.0 0.00 0.00 0.00 93 1015.1
20260831040115 76 248 0.0 2.0 0.00 0.00 0.00 93 1015.1
20260831035614 76 224 0.0 3.0 0.00 0.00 0.00 93 1015.3
20260831035108 76 327 0.0 3.0 0.00 0.00 0.00 92 1015.2
20260831034608 76 308 0.0 2.0 0.00 0.00 0.00 92 1015.2
20260831034058 76 268 1.0 2.0 0.00 0.00 0.00 92 1015.5
20260831033553 77 280 2.0 2.0 0.00 0.00 0.00 91 1015.5
20260831033048 76 271 2.0 3.0 0.00 0.00 0.00 91 1015.6
20260831032548 77 254 1.0 2.0 0.00 0.00 0.00 91 1015.6
20260831032044 77 300 1.0 2.0 0.00 0.00 0.00 90 1015.7
20260831031543 77 288 1.0 3.0 0.00 0.00 0.00 90 1015.7
20260831031043 77 325 0.0 3.0 0.00 0.00 0.00 90 1015.6
20260831030542 77 269 0.0 1.0 0.00 0.00 0.00 90 1015.8
20260831030041 77 278 0.0 2.0 0.00 0.00 0.00 89 1015.8
20260831025539 77 312 0.0 2.0 0.00 0.00 0.00 89 1015.6
20260831025035 77 230 2.0 3.0 0.00 0.00 0.00 90 1016.1
20260831024531 77 315 0.0 2.0 0.00 0.00 0.00 89 1015.8
20260831024030 78 226 2.0 3.0 0.00 0.00 0.00 89 1015.6
20260831023527 77 276 1.0 2.0 0.00 0.00 0.00 91 1015.5
20260831023022 77 236 1.0 2.0 0.00 0.00 0.00 91 1015.5
20260831022521 78 284 1.0 2.0 0.00 0.00 0.00 91 1015.5
20260831022017 78 246 2.0 2.0 0.00 0.00 0.00 91 1015.8
20260831021515 78 285 2.0 3.0 0.00 0.00 0.00 91 1015.7
20260831021012 78 268 2.0 2.0 0.00 0.00 0.00 91 1015.8
20260831020507 78 290 0.0 3.0 0.00 0.00 0.00 91 1015.9
20260831020001 78 215 1.0 2.0 0.00 0.00 0.00 91 1015.8
20260831015457 78 333 0.0 2.0 0.00 0.00 0.00 91 1015.8
20260831014952 78 317 0.0 1.0 0.00 0.00 0.00 91 1015.7
20260831014446 78 308 0.0 3.0 0.00 0.00 0.00 91 1015.9
20260831013942 78 322 0.0 2.0 0.00 0.00 0.00 91 1015.8
20260831013438 78 182 0.0 2.0 0.00 0.00 0.00 91 1015.9
20260831012932 78 234 1.0 2.0 0.00 0.00 0.00 90 1015.9
20260831012427 78 164 0.0 2.0 0.00 0.00 0.00 90 1015.8
20260831011927 78 215 2.0 2.0 0.00 0.00 0.00 89 1016.0
20260831011422 79 308 0.0 2.0 0.00 0.00 0.00 88 1015.9
20260831010917 79 89 0.0 3.0 0.00 0.00 0.00 88 1015.7
20260831010412 78 245 0.0 3.0 0.00 0.00 0.00 89 1015.6
20260831005908 78 286 0.0 2.0 0.00 0.00 0.00 89 1015.7
20260831005403 78 274 1.0 2.0 0.00 0.00 0.00 89 1015.5
20260831004857 79 269 0.0 2.0 0.00 0.00 0.00 88 1015.5
20260831004354 79 226 1.0 2.0 0.00 0.00 0.00 88 1015.6
20260831003849 79 206 0.0 2.0 0.00 0.00 0.00 88 1015.7
20260831003346 79 246 0.0 1.0 0.00 0.00 0.00 87 1015.6
20260831002845 79 243 0.0 3.0 0.00 0.00 0.00 87 1015.4
20260831002344 79 229 0.0 2.0 0.00 0.00 0.00 87 1015.7
20260831001840 80 269 0.0 3.0 0.00 0.00 0.00 87 1015.5
20260831001340 80 239 1.0 2.0 0.00 0.00 0.00 86 1015.5
20260831000837 80 294 0.0 4.0 0.00 0.00 0.00 86 1015.5
20260831000333 80 252 1.0 3.0 0.00 0.00 0.00 87 1015.5
20260830235831 79 267 1.0 2.0 0.00 0.00 0.00 87 1015.5
20260830235325 79 269 0.0 2.0 0.00 0.00 0.00 87 1015.3
20260830234821 79 280 0.0 2.0 0.00 0.00 0.00 87 1015.3
20260830234317 79 349 0.0 3.0 0.00 0.00 0.00 87 1015.2
20260830233812 79 193 0.0 2.0 0.00 0.00 0.00 87 1015.2
20260830233307 80 187 0.0 1.0 0.00 0.00 0.00 87 1015.0
20260830232803 80 353 0.0 1.0 0.00 0.00 0.00 86 1015.4
20260830232258 80 199 0.0 1.0 0.00 0.00 0.00 86 1015.2
20260830231754 80 235 0.0 2.0 0.00 0.00 0.00 86 1015.2
20260830231249 80 294 0.0 3.0 0.00 0.00 0.00 85 1015.3
20260830230744 80 319 0.0 1.0 0.00 0.00 0.00 84 1015.3
20260830230239 81 211 0.0 2.0 0.00 0.00 0.00 84 1015.4
20260830225738 81 205 0.0 1.0 0.00 0.00 0.00 83 1015.3
20260830225233 82 319 0.0 1.0 0.00 0.00 0.00 82 1015.2
20260830224732 82 348 0.0 0.0 0.00 0.00 0.00 81 1015.1
20260830224228 82 243 1.0 3.0 0.00 0.00 0.00 80 1015.2
20260830223725 82 217 0.0 1.0 0.00 0.00 0.00 80 1015.1
20260830223220 83 311 1.0 2.0 0.00 0.00 0.00 80 1015.2
20260830222715 83 278 0.0 1.0 0.00 0.00 0.00 79 1015.1
20260830222210 83 332 0.0 1.0 0.00 0.00 0.00 78 1015.1
20260830221706 83 297 0.0 1.0 0.00 0.00 0.00 77 1015.0
20260830221202 84 269 0.0 2.0 0.00 0.00 0.00 76 1015.1
20260830220657 84 254 0.0 2.0 0.00 0.00 0.00 75 1015.1
20260830220156 84 148 0.0 2.0 0.00 0.00 0.00 75 1015.0
20260830215655 85 166 0.0 0.0 0.00 0.00 0.00 74 1015.2
20260830215149 85 269 0.0 1.0 0.00 0.00 0.00 73 1015.2
20260830214645 85 142 0.0 1.0 0.00 0.00 0.00 73 1015.1
20260830214139 86 129 0.0 1.0 0.00 0.00 0.00 73 1015.0
20260830213638 85 75 0.0 2.0 0.00 0.00 0.00 72 1014.9
20260830213134 86 293 0.0 2.0 0.00 0.00 0.00 71 1015.0
20260830212630 85 117 0.0 1.0 0.00 0.00 0.00 71 1014.8
20260830212125 85 92 0.0 2.0 0.00 0.00 0.00 70 1014.8
20260830211620 86 219 0.0 1.0 0.00 0.00 0.00 69 1014.9
20260830211119 87 232 0.0 2.0 0.00 0.00 0.00 69 1014.7
20260830210615 87 253 3.0 3.0 0.00 0.00 0.00 66 1014.7
20260830210114 86 212 0.0 1.0 0.00 0.00 0.00 69 1014.8
20260830205611 87 260 0.0 2.0 0.00 0.00 0.00 66 1014.5
20260830205107 87 185 0.0 2.0 0.00 0.00 0.00 65 1014.9
20260830204606 86 261 0.0 2.0 0.00 0.00 0.00 67 1015.1
20260830204105 88 356 0.0 3.0 0.00 0.00 0.00 65 1015.1
20260830203602 88 173 0.0 2.0 0.00 0.00 0.00 64 1015.0
20260830203056 89 285 1.0 3.0 0.00 0.00 0.00 62 1015.1
20260830202556 88 257 1.0 4.0 0.00 0.00 0.00 63 1015.2
20260830202052 88 285 3.0 3.0 0.00 0.00 0.00 64 1015.2
20260830201551 87 335 1.0 3.0 0.00 0.00 0.00 66 1015.1
20260830201046 87 194 0.0 1.0 0.00 0.00 0.00 68 1015.3
20260830200542 88 265 2.0 3.0 0.00 0.00 0.00 66 1015.3
20260830200041 86 293 0.0 2.0 0.00 0.00 0.00 65 1015.3
20260830195536 86 267 1.0 3.0 0.00 0.00 0.00 68 1015.6
20260830195034 86 283 2.0 4.0 0.00 0.00 0.00 69 1015.8
20260830194534 86 276 0.0 2.0 0.00 0.00 0.00 70 1015.7
20260830194033 87 210 0.0 1.0 0.00 0.00 0.00 67 1015.6
20260830193533 87 255 3.0 3.0 0.00 0.00 0.00 67 1016.0
20260830193028 87 258 2.0 3.0 0.00 0.00 0.00 66 1016.0
20260830192524 87 286 3.0 4.0 0.00 0.00 0.00 67 1016.0
20260830192018 86 287 0.0 2.0 0.00 0.00 0.00 73 1016.0
20260830191513 86 21 1.0 3.0 0.00 0.00 0.00 68 1015.9
20260830191003 86 269 0.0 3.0 0.00 0.00 0.00 68 1016.2
20260830190458 85 78 2.0 2.0 0.00 0.00 0.00 69 1016.2
20260830185957 86 304 0.0 3.0 0.00 0.00 0.00 68 1016.2
20260830185452 86 326 2.0 2.0 0.00 0.00 0.00 72 1016.5
20260830184948 86 135 0.0 2.0 0.00 0.00 0.00 70 1016.6
20260830184447 86 248 2.0 3.0 0.00 0.00 0.00 69 1016.5
20260830183941 85 80 1.0 3.0 0.00 0.00 0.00 70 1016.8
20260830183436 87 292 2.0 4.0 0.00 0.00 0.00 67 1016.9
20260830182931 85 269 0.0 2.0 0.00 0.00 0.00 73 1016.7
20260830182427 85 290 2.0 3.0 0.00 0.00 0.00 71 1016.8
20260830181923 86 275 0.0 3.0 0.00 0.00 0.00 68 1017.0
20260830181413 86 279 2.0 5.0 0.00 0.00 0.00 68 1016.9
20260830180912 86 261 1.0 2.0 0.00 0.00 0.00 71 1017.2
20260830180407 85 328 1.0 4.0 0.00 0.00 0.00 68 1017.0
20260830175905 86 297 3.0 5.0 0.00 0.00 0.00 71 1017.4
20260830175400 85 306 1.0 3.0 0.00 0.00 0.00 70 1017.5
20260830174855 84 228 2.0 3.0 0.00 0.00 0.00 73 1017.2
20260830174351 85 293 3.0 4.0 0.00 0.00 0.00 70 1017.5
20260830173846 86 339 0.0 3.0 0.00 0.00 0.00 70 1017.4
20260830173341 85 304 3.0 4.0 0.00 0.00 0.00 70 1017.5
20260830172837 84 301 3.0 3.0 0.00 0.00 0.00 70 1017.3
20260830172333 83 240 0.0 3.0 0.00 0.00 0.00 71 1017.5
20260830171828 85 213 2.0 3.0 0.00 0.00 0.00 70 1017.6
20260830171324 83 220 2.0 2.0 0.00 0.00 0.00 74 1017.7
20260830170819 84 189 2.0 3.0 0.00 0.00 0.00 71 1017.6
20260830170317 85 247 1.0 4.0 0.00 0.00 0.00 70 1018.0
20260830165811 84 303 5.0 5.0 0.00 0.00 0.00 70 1017.8
20260830165307 84 284 1.0 2.0 0.00 0.00 0.00 73 1017.8
20260830164803 84 181 1.0 2.0 0.00 0.00 0.00 71 1018.0
20260830164259 83 143 0.0 7.0 0.00 0.00 0.00 72 1017.9
20260830163755 84 262 2.0 3.0 0.00 0.00 0.00 73 1017.9
20260830163251 83 265 2.0 4.0 0.00 0.00 0.00 74 1018.0
20260830162745 83 240 3.0 3.0 0.00 0.00 0.00 73 1018.0
20260830162241 83 251 1.0 2.0 0.00 0.00 0.00 74 1018.3
20260830161731 83 359 2.0 3.0 0.00 0.00 0.00 73 1018.2
20260830161230 83 7 3.0 3.0 0.00 0.00 0.00 74 1018.1
20260830160726 83 213 1.0 1.0 0.00 0.00 0.00 74 1018.1
20260830160226 83 293 0.0 3.0 0.00 0.00 0.00 74 1018.2
20260830155723 82 261 2.0 3.0 0.00 0.00 0.00 75 1018.1
20260830155218 82 243 3.0 3.0 0.00 0.00 0.00 76 1018.3
20260830154713 81 313 2.0 4.0 0.00 0.00 0.00 76 1018.3
20260830154208 81 137 3.0 4.0 0.00 0.00 0.00 77 1018.4
20260830153705 81 222 3.0 4.0 0.00 0.00 0.00 76 1018.4
20260830153200 81 31 1.0 3.0 0.00 0.00 0.00 78 1018.3
20260830152659 80 357 1.0 3.0 0.00 0.00 0.00 78 1018.6
20260830152158 81 234 3.0 3.0 0.00 0.00 0.00 79 1018.5
20260830151654 80 233 3.0 3.0 0.00 0.00 0.00 79 1018.6
20260830151153 79 267 1.0 4.0 0.00 0.00 0.00 80 1018.5
20260830150648 79 229 1.0 2.0 0.00 0.00 0.00 80 1018.6
20260830150143 79 253 0.0 3.0 0.00 0.00 0.00 80 1018.5
20260830145642 80 207 0.0 3.0 0.00 0.00 0.00 79 1018.5
20260830145137 80 277 2.0 3.0 0.00 0.00 0.00 80 1018.7
20260830144633 80 286 1.0 2.0 0.00 0.00 0.00 81 1018.6
20260830144128 80 311 0.0 3.0 0.00 0.00 0.00 80 1018.6
20260830143625 80 271 4.0 6.0 0.00 0.00 0.00 80 1018.6
20260830143122 79 85 0.0 1.0 0.00 0.00 0.00 81 1018.6
20260830142618 79 242 0.0 2.0 0.00 0.00 0.00 81 1018.7
20260830142113 80 259 1.0 2.0 0.00 0.00 0.00 79 1018.4
20260830141608 78 104 0.0 4.0 0.00 0.00 0.00 82 1018.6
20260830141103 78 324 2.0 3.0 0.00 0.00 0.00 80 1018.4
20260830140557 78 227 2.0 3.0 0.00 0.00 0.00 81 1018.8
20260830140053 77 318 0.0 5.0 0.00 0.00 0.00 82 1018.5
20260830135548 79 311 1.0 4.0 0.00 0.00 0.00 83 1018.9
20260830135043 76 316 1.0 3.0 0.00 0.00 0.00 85 1018.8
20260830134539 77 298 2.0 3.0 0.00 0.00 0.00 86 1018.9
20260830134034 77 266 1.0 4.0 0.00 0.00 0.00 86 1018.8
20260830133529 77 231 2.0 3.0 0.00 0.00 0.00 89 1018.9
20260830133024 76 248 2.0 3.0 0.00 0.00 0.00 89 1019.2
20260830132521 76 286 0.0 3.0 0.00 0.00 0.00 90 1019.3
20260830132021 75 159 0.0 2.0 0.00 0.00 0.00 93 1019.4
20260830131519 74 209 0.0 2.0 0.00 0.00 0.00 94 1019.2
20260830131014 74 296 1.0 2.0 0.00 0.00 0.00 96 1019.3
20260830130509 73 310 0.0 2.0 0.00 0.00 0.00 97 1019.2
20260830130009 73 180 0.0 2.0 0.00 0.00 0.00 97 1019.4
20260830125503 73 250 1.0 2.0 0.00 0.00 0.00 98 1019.4
20260830125001 72 223 1.0 2.0 0.00 0.00 0.00 99 1019.6
20260830124457 71 230 0.0 2.0 0.00 0.00 0.00 99 1019.6
20260830123953 71 227 0.0 2.0 0.00 0.00 0.00 99 1019.5
20260830123450 71 205 1.0 1.0 0.00 0.00 0.00 99 1019.5
20260830122948 70 268 0.0 1.0 0.00 0.00 0.00 99 1019.7
20260830122447 70 193 0.0 2.0 0.00 0.00 0.00 99 1019.6
20260830121942 70 259 0.0 1.0 0.00 0.00 0.00 99 1019.7
20260830121437 69 0 0.0 2.0 0.00 0.00 0.00 99 1019.8
20260830120931 69 242 0.0 2.0 0.00 0.00 0.00 99 1019.7
20260830120427 68 295 0.0 2.0 0.00 0.00 0.00 99 1019.7
20260830115923 68 231 0.0 2.0 0.00 0.00 0.00 99 1019.9
20260830115419 67 6 0.0 2.0 0.00 0.00 0.00 99 1019.8
20260830114915 67 298 1.0 2.0 0.00 0.00 0.00 99 1019.9
20260830114412 67 339 0.0 2.0 0.00 0.00 0.00 99 1019.6
20260830113911 67 356 0.0 2.0 0.00 0.00 0.00 99 1019.5
20260830113406 66 202 0.0 1.0 0.00 0.00 0.00 99 1019.4
20260830112901 66 44 0.0 1.0 0.00 0.00 0.00 99 1019.5
20260830112357 66 226 0.0 2.0 0.00 0.00 0.00 99 1019.2
20260830111854 66 283 0.0 2.0 0.00 0.00 0.00 99 1019.5
20260830111349 66 306 0.0 2.0 0.00 0.00 0.00 99 1019.5
20260830110843 66 165 0.0 1.0 0.00 0.00 0.00 99 1019.6
20260830110339 66 261 1.0 2.0 0.00 0.00 0.00 99 1019.5
20260830105838 66 169 0.0 1.0 0.00 0.00 0.00 99 1019.4
20260830105335 66 343 0.0 1.0 0.00 0.00 0.00 99 1019.4
20260830104831 66 269 0.0 1.0 0.00 0.00 0.00 99 1019.1
20260830104327 66 297 0.0 1.0 0.00 0.00 0.00 99 1019.0
20260830103826 66 353 0.0 1.0 0.00 0.00 0.00 99 1019.0
20260830103323 66 186 0.0 1.0 0.00 0.00 0.00 99 1019.0
20260830102820 66 339 0.0 1.0 0.00 0.00 0.00 99 1019.0
20260830102316 66 356 1.0 1.0 0.00 0.00 0.00 98 1018.9
20260830101812 66 217 0.0 1.0 0.00 0.00 0.00 98 1019.0
20260830101307 66 188 0.0 1.0 0.00 0.00 0.00 98 1019.0
20260830100806 66 195 0.0 1.0 0.00 0.00 0.00 98 1018.8
20260830100301 66 0 0.0 0.0 0.00 0.00 0.00 98 1019.0
20260830095759 66 160 0.0 1.0 0.00 0.00 0.00 98 1018.9
20260830095256 66 25 0.0 0.0 0.00 0.00 0.00 98 1019.1
20260830094752 66 46 0.0 1.0 0.00 0.00 0.00 99 1019.0
20260830094249 66 248 0.0 1.0 0.00 0.00 0.00 99 1019.4
20260830093749 66 301 0.0 0.0 0.00 0.00 0.00 99 1019.1
20260830093244 66 309 0.0 1.0 0.00 0.00 0.00 98 1019.2
20260830092739 66 238 0.0 1.0 0.00 0.00 0.00 99 1018.8
20260830092236 66 296 0.0 1.0 0.00 0.00 0.00 98 1018.9
20260830091732 66 321 0.0 1.0 0.00 0.00 0.00 98 1019.0
20260830091231 66 297 1.0 2.0 0.00 0.00 0.00 98 1018.9
20260830090730 66 228 0.0 0.0 0.00 0.00 0.00 98 1018.8
20260830090226 66 246 0.0 0.0 0.00 0.00 0.00 98 1018.9
20260830085725 66 229 0.0 1.0 0.00 0.00 0.00 98 1018.9
20260830085221 66 189 0.0 1.0 0.00 0.00 0.00 98 1018.8
20260830084716 66 22 0.0 1.0 0.00 0.00 0.00 98 1018.8
20260830084211 66 163 0.0 1.0 0.00 0.00 0.00 98 1019.0
20260830083706 66 247 1.0 1.0 0.00 0.00 0.00 98 1019.1
20260830083202 66 13 0.0 1.0 0.00 0.00 0.00 98 1019.0
20260830082656 66 355 0.0 1.0 0.00 0.00 0.00 98 1019.0
20260830082152 66 38 0.0 1.0 0.00 0.00 0.00 98 1019.1
20260830081648 66 256 0.0 2.0 0.00 0.00 0.00 98 1019.0
20260830081147 66 212 0.0 1.0 0.00 0.00 0.00 98 1019.1
20260830080641 66 240 0.0 1.0 0.00 0.00 0.00 98 1019.3